User: anonymous   Login
Location: Ostrava
(49.8330°N, 18.2830°E)
Time: 00:50:50
(UTC+01:00)
Language:

Lacrosse 5 - Orbit

View from above orbital plane
View from above orbital plane
View from above satellite
View from above satellite

Ground track
Ground track

The orbit data is extracted from the following two-line orbital elements,

1 28646U 05016A   16017.67596032 0.00000000  00000-0  00000-0 0    04
2 28646  57.0130 253.6571 0005000 140.4550 219.5450 14.52120532    08
Epoch (UTC): 17 January 2016 16:13:22
Eccentricity: 0.0005000
inclination: 57.0130°
perigee height: 715 km
apogee height: 722 km
right ascension of ascending node: 253.6571°
argument of perigee: 140.4550°
revolutions per day: 14.52120532
mean anomaly at epoch: 219.5450°
orbit number at epoch: 0

The dashed part of the orbit path shows where the satellite is in the earth's shadow,  

DLR